| time (UTC) | temp F | wind direction | speed MPH | gust MPH | rain 1hr in | rain 24hr in | rain mn in | humidity % | barometer mb |
| 20260504234543 | 54 | 303 | 9.0 | 21.0 | 0.00 | 0.00 | 0.00 | 38 | 1007.2 |
| 20260504234508 | 54 | 286 | 9.0 | 21.0 | 0.00 | 0.00 | 0.00 | 39 | 999.4 |
| 20260504233039 | 55 | 246 | 7.0 | 21.0 | 0.00 | 0.00 | 0.00 | 37 | 1007.0 |
| 20260504233007 | 55 | 261 | 7.0 | 21.0 | 0.00 | 0.00 | 0.00 | 37 | 999.2 |
| 20260504231555 | 56 | 219 | 10.0 | 23.0 | 0.00 | 0.00 | 0.00 | 36 | 1006.8 |
| 20260504231509 | 56 | 267 | 10.0 | 23.0 | 0.00 | 0.00 | 0.00 | 37 | 999.0 |
| 20260504230037 | 56 | 272 | 10.0 | 20.0 | 0.00 | 0.00 | 0.00 | 34 | 1006.6 |
| 20260504230006 | 57 | 248 | 11.0 | 19.0 | 0.00 | 0.00 | 0.00 | 34 | 998.7 |
| 20260504224539 | 57 | 294 | 7.0 | 23.0 | 0.00 | 0.00 | 0.00 | 34 | 1006.4 |
| 20260504224506 | 57 | 279 | 7.0 | 23.0 | 0.00 | 0.00 | 0.00 | 34 | 998.4 |
| 20260504223040 | 58 | 280 | 10.0 | 24.0 | 0.00 | 0.00 | 0.00 | 34 | 1006.2 |
| 20260504223008 | 58 | 274 | 10.0 | 24.0 | 0.00 | 0.00 | 0.00 | 35 | 998.1 |
| 20260504221543 | 59 | 232 | 9.0 | 22.0 | 0.00 | 0.00 | 0.00 | 34 | 1005.7 |
| 20260504221506 | 59 | 326 | 9.0 | 22.0 | 0.00 | 0.00 | 0.00 | 35 | 997.6 |
| 20260504220040 | 60 | 243 | 10.0 | 22.0 | 0.00 | 0.00 | 0.00 | 35 | 1005.4 |
| 20260504220004 | 60 | 309 | 10.0 | 20.0 | 0.00 | 0.00 | 0.00 | 35 | 997.3 |
| 20260504214539 | 59 | 309 | 8.0 | 27.0 | 0.00 | 0.00 | 0.00 | 36 | 1005.2 |
| 20260504214506 | 59 | 256 | 9.0 | 26.0 | 0.00 | 0.00 | 0.00 | 37 | 997.2 |
| 20260504213036 | 61 | 263 | 3.0 | 19.0 | 0.00 | 0.00 | 0.00 | 41 | 1005.0 |
| 20260504213004 | 61 | 264 | 3.0 | 18.0 | 0.00 | 0.00 | 0.00 | 44 | 997.0 |
| 20260504211542 | 60 | 288 | 10.0 | 26.0 | 0.00 | 0.00 | 0.00 | 39 | 1004.9 |
| 20260504211504 | 60 | 294 | 10.0 | 26.0 | 0.00 | 0.00 | 0.00 | 39 | 996.8 |
| 20260504210100 | 62 | 241 | 10.0 | 21.0 | 0.00 | 0.00 | 0.00 | 35 | 1004.7 |
| 20260504204547 | 63 | 223 | 8.0 | 18.0 | 0.00 | 0.00 | 0.00 | 36 | 1004.6 |
| 20260504204502 | 63 | 327 | 9.0 | 18.0 | 0.00 | 0.00 | 0.00 | 37 | 996.5 |
| 20260504203044 | 61 | 196 | 6.0 | 28.0 | 0.00 | 0.00 | 0.00 | 40 | 1004.6 |
| 20260504203004 | 61 | 254 | 7.0 | 22.0 | 0.00 | 0.00 | 0.00 | 40 | 996.5 |
| 20260504201545 | 62 | 207 | 10.0 | 26.0 | 0.00 | 0.00 | 0.00 | 38 | 1004.5 |
| 20260504201501 | 61 | 250 | 9.0 | 25.0 | 0.00 | 0.00 | 0.00 | 39 | 996.6 |
| 20260504200109 | 61 | 196 | 13.0 | 23.0 | 0.00 | 0.00 | 0.00 | 37 | 996.4 |
| 20260504200036 | 61 | 252 | 11.0 | 25.0 | 0.00 | 0.00 | 0.00 | 36 | 1004.6 |
| 20260504194611 | 61 | 175 | 10.0 | 24.0 | 0.00 | 0.00 | 0.00 | 38 | 996.2 |
| 20260504194559 | 61 | 298 | 11.0 | 24.0 | 0.00 | 0.00 | 0.00 | 37 | 1004.3 |
| 20260504193118 | 63 | 241 | 8.0 | 19.0 | 0.00 | 0.00 | 0.00 | 36 | 996.0 |
| 20260504193040 | 63 | 242 | 10.0 | 19.0 | 0.00 | 0.00 | 0.00 | 35 | 1004.0 |
| 20260504191605 | 63 | 246 | 7.0 | 29.0 | 0.00 | 0.00 | 0.00 | 39 | 995.9 |
| 20260504191546 | 63 | 292 | 8.0 | 30.0 | 0.00 | 0.00 | 0.00 | 37 | 1003.9 |
| 20260504190116 | 64 | 242 | 12.0 | 22.0 | 0.00 | 0.00 | 0.00 | 38 | 995.9 |
| 20260504190045 | 64 | 257 | 13.0 | 22.0 | 0.00 | 0.00 | 0.00 | 37 | 1003.7 |
| 20260504184626 | 63 | 237 | 12.0 | 21.0 | 0.00 | 0.00 | 0.00 | 35 | 995.8 |
| 20260504184540 | 63 | 248 | 11.0 | 22.0 | 0.00 | 0.00 | 0.00 | 34 | 1003.7 |
| 20260504183058 | 63 | 298 | 7.0 | 22.0 | 0.00 | 0.00 | 0.00 | 34 | 995.8 |
| 20260504183035 | 63 | 263 | 8.0 | 24.0 | 0.00 | 0.00 | 0.00 | 33 | 1003.5 |
| 20260504181558 | 62 | 298 | 9.0 | 30.0 | 0.00 | 0.00 | 0.00 | 33 | 995.8 |
| 20260504181544 | 62 | 232 | 13.0 | 30.0 | 0.00 | 0.00 | 0.00 | 32 | 1003.7 |
| 20260504180106 | 63 | 263 | 14.0 | 27.0 | 0.00 | 0.00 | 0.00 | 30 | 1003.4 |
| 20260504180056 | 63 | 269 | 14.0 | 26.0 | 0.00 | 0.00 | 0.00 | 30 | 995.6 |
| 20260504174555 | 63 | 192 | 9.0 | 23.0 | 0.00 | 0.00 | 0.00 | 33 | 995.0 |
| 20260504174538 | 63 | 254 | 8.0 | 23.0 | 0.00 | 0.00 | 0.00 | 30 | 1002.9 |
| 20260504173056 | 64 | 264 | 12.0 | 22.0 | 0.00 | 0.00 | 0.00 | 32 | 995.1 |
| 20260504173038 | 64 | 265 | 12.0 | 22.0 | 0.00 | 0.00 | 0.00 | 32 | 1003.0 |
| 20260504171557 | 64 | 217 | 8.0 | 21.0 | 0.00 | 0.00 | 0.00 | 33 | 995.2 |
| 20260504171536 | 64 | 283 | 7.0 | 24.0 | 0.00 | 0.00 | 0.00 | 34 | 1003.0 |
| 20260504081542 | 52 | 197 | 7.0 | 13.0 | 0.00 | 0.00 | 0.00 | 44 | 1006.8 |
| 20260504081535 | 52 | 196 | 7.0 | 13.0 | 0.00 | 0.00 | 0.00 | 44 | 999.0 |
| 20260504044553 | 54 | 242 | 1.0 | 4.0 | 0.00 | 0.00 | 0.00 | 37 | 1002.9 |
| 20260504044542 | 54 | 242 | 1.0 | 4.0 | 0.00 | 0.00 | 0.00 | 37 | 1010.7 |
| 20260504043052 | 54 | 242 | 1.0 | 2.0 | 0.00 | 0.00 | 0.00 | 35 | 1003.1 |
| 20260504043042 | 54 | 0 | 1.0 | 2.0 | 0.00 | 0.00 | 0.00 | 35 | 1010.8 |
| 20260504041551 | 55 | 242 | 1.0 | 3.0 | 0.00 | 0.00 | 0.00 | 36 | 1003.3 |
| 20260504041540 | 55 | 0 | 1.0 | 4.0 | 0.00 | 0.00 | 0.00 | 35 | 1011.0 |
| 20260504040051 | 55 | 242 | 0.0 | 3.0 | 0.00 | 0.00 | 0.00 | 35 | 1003.6 |
| 20260504040042 | 55 | 242 | 0.0 | 3.0 | 0.00 | 0.00 | 0.00 | 34 | 1011.3 |
| 20260504034550 | 55 | 243 | 0.0 | 4.0 | 0.00 | 0.00 | 0.00 | 35 | 1003.7 |
| 20260504034547 | 55 | 243 | 0.0 | 4.0 | 0.00 | 0.00 | 0.00 | 34 | 1011.4 |
| 20260504033054 | 56 | 244 | 1.0 | 8.0 | 0.00 | 0.00 | 0.00 | 34 | 1003.8 |
| 20260504033036 | 56 | 0 | 1.0 | 8.0 | 0.00 | 0.00 | 0.00 | 33 | 1011.5 |
| 20260504031602 | 55 | 245 | 1.0 | 7.0 | 0.00 | 0.00 | 0.00 | 33 | 1011.7 |
| 20260504031559 | 56 | 244 | 2.0 | 8.0 | 0.00 | 0.00 | 0.00 | 33 | 1004.0 |
| 20260504030051 | 54 | 311 | 0.0 | 2.0 | 0.00 | 0.00 | 0.00 | 33 | 1003.8 |
| 20260504030043 | 54 | 311 | 0.0 | 2.0 | 0.00 | 0.00 | 0.00 | 32 | 1011.5 |
| 20260504024557 | 56 | 311 | 0.0 | 0.0 | 0.00 | 0.00 | 0.00 | 30 | 1003.9 |
| 20260504024542 | 56 | 0 | 0.0 | 0.0 | 0.00 | 0.00 | 0.00 | 29 | 1011.6 |
| 20260504023048 | 56 | 311 | 0.0 | 0.0 | 0.00 | 0.00 | 0.00 | 31 | 1003.9 |
| 20260504023039 | 56 | 0 | 0.0 | 0.0 | 0.00 | 0.00 | 0.00 | 31 | 1011.7 |
| 20260504021552 | 57 | 311 | 0.0 | 2.0 | 0.00 | 0.00 | 0.00 | 30 | 1003.9 |
| 20260504021538 | 57 | 0 | 0.0 | 2.0 | 0.00 | 0.00 | 0.00 | 30 | 1011.6 |
| 20260504020050 | 57 | 311 | 0.0 | 1.0 | 0.00 | 0.00 | 0.00 | 31 | 1004.0 |
| 20260504020039 | 58 | 0 | 0.0 | 1.0 | 0.00 | 0.00 | 0.00 | 28 | 1011.6 |
| 20260504014546 | 58 | 311 | 0.0 | 5.0 | 0.00 | 0.00 | 0.00 | 28 | 1004.0 |
| 20260504014536 | 58 | 0 | 0.0 | 5.0 | 0.00 | 0.00 | 0.00 | 27 | 1011.6 |
| 20260504013054 | 58 | 316 | 0.0 | 3.0 | 0.00 | 0.00 | 0.00 | 28 | 1003.8 |
| 20260504013042 | 58 | 0 | 0.0 | 3.0 | 0.00 | 0.00 | 0.00 | 29 | 1011.5 |
| 20260504011546 | 60 | 316 | 0.0 | 3.0 | 0.00 | 0.00 | 0.00 | 26 | 1003.9 |
| 20260504011539 | 60 | 0 | 0.0 | 4.0 | 0.00 | 0.00 | 0.00 | 26 | 1011.4 |
| 20260504010045 | 62 | 0 | 1.0 | 7.0 | 0.00 | 0.00 | 0.00 | 23 | 1011.5 |
| 20260504004559 | 63 | 308 | 1.0 | 8.0 | 0.00 | 0.00 | 0.00 | 22 | 1003.6 |
| 20260504004538 | 63 | 308 | 2.0 | 10.0 | 0.00 | 0.00 | 0.00 | 21 | 1011.4 |
| 20260504003044 | 64 | 294 | 2.0 | 14.0 | 0.00 | 0.00 | 0.00 | 22 | 1003.5 |
| 20260504003042 | 64 | 294 | 3.0 | 17.0 | 0.00 | 0.00 | 0.00 | 21 | 1011.3 |
| 20260504001546 | 65 | 273 | 4.0 | 15.0 | 0.00 | 0.00 | 0.00 | 21 | 1003.4 |
| 20260504000043 | 66 | 254 | 6.0 | 13.0 | 0.00 | 0.00 | 0.00 | 22 | 1003.3 |
| 20260504000041 | 66 | 307 | 5.0 | 13.0 | 0.00 | 0.00 | 0.00 | 22 | 1011.1 |